QPF
0.00 0.00 0.00 0.00 0.00 0.00 0.00 0.00 0.00 0.00 0.00 0.00 0.00 0.00 0.00 0.00 0.00 0.00 0.00 0.00 0.00 0.00 0.00 0.00 0.00 0.00 0.00 0.00 0.00 0.00 0.00 0.00 0.00 0.00 0.00 0.00 0.00 0.00 0.00 0.00 0.00 0.00 0.00
0.00 0.00 0.00 0.00 0.00 0.00 0.00 0.00 0.00 0.00 0.00 0.00 0.00 0.00 0.00 0.00 0.00 0.00 0.00 0.00 0.00 0.00 0.00 0.00 0.00 0.00 0.00 0.00 0.00 0.00 0.00 0.00 0.00 0.00 0.00 0.00 0.00 0.00 0.00 0.00 0.00 0.00 0.00
0.00 0.00 0.00 0.00 0.00 0.00 0.00 0.00 0.00 0.00 0.00 0.00 0.00 0.00 0.00 0.00 0.00 0.00 0.00 0.00 0.00 0.00 0.00 0.00 0.00 0.00 0.00 0.00 0.00 0.00 0.00 0.00 0.00 0.00 0.00 0.00 0.00 0.00 0.00 0.00 0.00 0.00 0.00
0.00 0.00 0.00 0.00 0.00 0.00 0.00 0.00 0.00 0.00 0.00 0.00 0.00 0.00 0.00 0.00 0.00 0.00 0.00 0.00 0.00 0.00 0.00 0.00 0.00 0.00 0.00 0.00 0.00 0.00 0.00 0.00 0.00 0.00 0.00 0.00 0.00 0.00 0.00 0.00 0.00 0.00 0.00
0.00 0.00 0.00 0.00 0.00 0.00 0.00 0.00 0.00 0.00 0.00 0.00 0.00 0.00 0.00 0.00 0.00 0.00 0.00 0.00 0.00 0.00 0.00 0.00 0.00 0.00 0.00 0.00 0.00 0.00 0.00 0.00 0.00 0.00 0.00 0.00 0.00 0.00 0.00 0.00 0.00 0.00 0.00
0.00 0.00 0.00 0.00 0.00 0.00 0.00 0.00 0.00 0.00 0.00 0.00 0.00 0.00 0.00 0.00 0.00 0.00 0.00 0.00 0.00 0.00 0.00 0.00 0.01 0.05 0.02 0.00 0.00 0.00 0.00 0.00 0.00 0.00 0.00 0.00 0.00 0.00 0.00 0.00 0.00 0.00 0.00
0.00 0.00 0.00 0.00 0.00 0.00 0.00 0.00 0.00 0.00 0.00 0.00 0.00 0.00 0.00 0.00 0.00 0.00 0.00 0.00 0.00 0.00 0.01 0.04 0.01 0.01 0.01 0.00 0.00 0.00 0.00 0.00 0.00 0.00 0.00 0.00 0.00 0.01 0.00 0.00 0.00 0.00 0.00
0.00 0.00 0.00 0.00 0.00 0.00 0.00 0.00 0.00 0.00 0.00 0.00 0.00 0.00 0.00 0.00 0.00 0.00 0.00 0.00 0.00 0.02 0.02 0.02 0.01 0.00 0.00 0.00 0.00 0.00 0.00 0.00 0.00 0.00 0.00 0.00 0.00 0.00 0.00 0.00 0.00 0.00 0.00
0.00 0.00 0.00 0.00 0.00 0.00 0.00 0.00 0.00 0.00 0.00 0.00 0.00 0.00 0.00 0.00 0.00 0.00 0.00 0.00 0.00 0.02 0.02 0.01 0.00 0.00 0.00 0.00 0.00 0.00 0.00 0.00 0.00 0.00 0.00 0.00 0.01 0.01 0.00 0.00 0.00 0.00 0.00
0.00 0.00 0.00 0.00 0.00 0.00 0.00 0.00 0.00 0.00 0.00 0.00 0.00 0.00 0.00 0.00 0.00 0.00 0.00 0.00 0.00 0.00 0.01 0.01 0.00 0.00 0.00 0.00 0.00 0.00 0.00 0.00 0.00 0.00 0.00 0.00 0.00 0.00 0.00 0.00 0.00 0.00 0.00
0.00 0.00 0.00 0.00 0.00 0.00 0.00 0.00 0.00 0.00 0.00 0.00 0.00 0.00 0.00 0.00 0.00 0.00 0.00 0.00 0.00 0.00 0.01 0.01 0.00 0.00 0.00 0.00 0.00 0.00 0.00 0.00 0.00 0.00 0.00 0.00 0.00 0.00 0.00 0.00 0.00 0.00 0.00
0.00 0.00 0.00 0.00 0.00 0.00 0.00 0.00 0.00 0.00 0.00 0.00 0.00 0.00 0.00 0.00 0.00 0.00 0.00 0.00 0.00 0.01 0.00 0.00 0.00 0.00 0.00 0.00 0.00 0.00 0.00 0.00 0.00 0.00 0.00 0.00 0.00 0.00 0.00 0.00 0.00 0.00 0.00
0.00 0.00 0.00 0.00 0.00 0.00 0.00 0.00 0.00 0.00 0.00 0.00 0.01 0.04 0.05 0.10 0.04 0.05 0.09 0.10 0.05 0.06 0.04 0.00 0.00 0.00 0.00 0.00 0.00 0.00 0.00 0.00 0.00 0.00 0.00 0.00 0.00 0.00 0.00 0.00 0.00 0.00 0.00
0.00 0.00 0.00 0.00 0.00 0.00 0.00 0.00 0.00 0.00 0.00 0.00 0.04 0.11 0.23 0.48 0.51 0.41 0.27 0.18 0.13 0.06 0.00 0.00 0.00 0.00 0.00 0.00 0.00 0.00 0.00 0.00 0.00 0.00 0.00 0.00 0.00 0.00 0.00 0.00 0.00 0.00 0.00
0.00 0.00 0.00 0.00 0.00 0.00 0.00 0.00 0.00 0.00 0.00 0.01 0.01 0.05 0.19 0.24 0.21 0.16 0.16 0.14 0.10 0.05 0.01 0.00 0.00 0.00 0.00 0.00 0.00 0.00 0.00 0.00 0.00 0.00 0.00 0.00 0.00 0.00 0.00 0.00 0.00 0.00 0.00
0.00 0.00 0.00 0.00 0.00 0.00 0.00 0.00 0.01 0.07 0.13 0.22 0.21 0.29 0.31 0.20 0.15 0.10 0.04 0.03 0.01 0.00 0.00 0.00 0.00 0.00 0.00 0.00 0.00 0.00 0.00 0.00 0.00 0.00 0.00 0.00 0.00 0.00 0.00 0.00 0.00 0.00 0.00
0.00 0.00 0.00 0.00 0.01 0.03 0.05 0.07 0.07 0.17 0.21 0.24 0.26 0.22 0.15 0.09 0.06 0.05 0.02 0.03 0.01 0.00 0.00 0.00 0.00 0.00 0.00 0.00 0.00 0.00 0.00 0.00 0.00 0.00 0.00 0.00 0.00 0.00 0.00 0.00 0.00 0.00 0.00
0.00 0.00 0.00 0.00 0.02 0.05 0.09 0.11 0.12 0.08 0.06 0.06 0.04 0.04 0.05 0.05 0.04 0.04 0.06 0.06 0.03 0.00 0.00 0.00 0.00 0.00 0.00 0.00 0.00 0.00 0.00 0.00 0.00 0.00 0.00 0.00 0.00 0.00 0.00 0.00 0.00 0.00 0.00
0.00 0.00 0.00 0.00 0.00 0.00 0.00 0.00 0.00 0.00 0.00 0.01 0.02 0.05 0.04 0.06 0.15 0.17 0.10 0.04 0.03 0.00 0.00 0.00 0.00 0.00 0.00 0.00 0.00 0.00 0.00 0.00 0.00 0.00 0.00 0.00 0.00 0.00 0.00 0.00 0.00 0.00 0.00
0.00 0.00 0.00 0.00 0.00 0.00 0.00 0.00 0.00 0.01 0.02 0.07 0.12 0.16 0.14 0.13 0.14 0.08 0.08 0.05 0.01 0.00 0.00 0.00 0.00 0.00 0.00 0.00 0.00 0.00 0.00 0.00 0.00 0.00 0.00 0.00 0.00 0.00 0.00 0.00 0.00 0.00 0.00
0.00 0.00 0.02 0.02 0.00 0.00 0.00 0.00 0.03 0.07 0.08 0.11 0.11 0.13 0.14 0.13 0.07 0.03 0.01 0.00 0.00 0.00 0.00 0.00 0.00 0.00 0.00 0.00 0.00 0.00 0.00 0.00 0.00 0.00 0.00 0.00 0.00 0.00 0.00 0.00 0.00 0.00 0.00
0.00 0.00 0.01 0.01 0.02 0.02 0.04 0.06 0.06 0.05 0.05 0.05 0.03 0.03 0.02 0.00 0.00 0.00 0.00 0.00 0.00 0.00 0.00 0.00 0.00 0.00 0.00 0.00 0.00 0.00 0.00 0.00 0.00 0.00 0.00 0.00 0.00 0.00 0.00 0.00 0.00 0.00 0.00
0.00 0.00 0.00 0.01 0.02 0.03 0.05 0.05 0.02 0.01 0.00 0.00 0.01 0.01 0.00 0.00 0.00 0.00 0.00 0.00 0.00 0.00 0.00 0.00 0.00 0.00 0.00 0.00 0.00 0.00 0.00 0.00 0.00 0.00 0.00 0.00 0.00 0.00 0.00 0.00 0.00 0.00 0.00
0.01 0.02 0.03 0.02 0.02 0.03 0.03 0.04 0.03 0.02 0.01 0.00 0.00 0.00 0.01 0.00 0.00 0.00 0.00 0.00 0.00 0.00 0.00 0.00 0.00 0.00 0.00 0.00 0.00 0.00 0.00 0.00 0.00 0.00 0.00 0.00 0.00 0.00 0.00 0.00 0.00 0.00 0.00
0.00 0.00 0.00 0.01 0.00 0.01 0.01 0.03 0.04 0.03 0.03 0.03 0.02 0.01 0.01 0.01 0.00 0.00 0.00 0.00 0.00 0.00 0.00 0.00 0.00 0.00 0.00 0.00 0.00 0.00 0.00 0.00 0.00 0.00 0.00 0.00 0.00 0.00 0.00 0.00 0.00 0.00 0.00
0.00 0.00 0.00 0.00 0.00 0.01 0.01 0.01 0.02 0.03 0.05 0.03 0.02 0.03 0.02 0.01 0.00 0.00 0.00 0.00 0.00 0.00 0.00 0.00 0.00 0.00 0.00 0.00 0.00 0.00 0.00 0.00 0.00 0.00 0.00 0.00 0.00 0.00 0.00 0.00 0.00 0.00 0.00
MSLP
1006.41 1007.12 1007.88 1008.62 1009.43 1010.06 1010.54 1010.91 1011.51 1012.21 1012.75 1013.30 1013.82 1014.33 1014.81 1015.31 1015.83 1016.37 1016.90 1017.37 1017.84 1018.20 1018.53 1018.80 1019.06 1019.29 1019.53 1019.79 1019.97 1020.09 1020.20 1020.34 1020.47 1020.47 1020.77 1020.68 1020.54 1020.44 1020.30 1020.34 1020.43 1020.53 1020.46
1005.04 1005.98 1006.60 1007.44 1008.27 1009.04 1009.56 1010.05 1010.77 1011.32 1011.96 1012.51 1013.07 1013.61 1014.08 1014.55 1015.08 1015.55 1016.14 1016.63 1017.23 1017.76 1018.05 1018.46 1018.54 1018.93 1019.16 1019.36 1019.60 1019.66 1019.76 1020.01 1020.20 1020.37 1020.27 1020.29 1020.33 1020.14 1020.14 1020.31 1020.24 1019.99 1019.82
1004.09 1004.86 1005.73 1006.45 1007.26 1007.93 1008.43 1009.02 1009.76 1010.39 1010.96 1011.64 1012.18 1012.67 1013.17 1013.65 1014.19 1014.61 1015.14 1015.81 1016.31 1016.76 1017.21 1017.63 1017.87 1018.36 1018.62 1018.85 1019.11 1019.39 1019.74 1020.01 1020.20 1020.30 1020.25 1020.27 1020.21 1020.36 1020.27 1019.96 1019.85 1019.73 1019.73
1002.90 1003.72 1004.38 1005.02 1005.59 1006.21 1007.01 1007.86 1008.56 1009.16 1009.91 1010.47 1010.94 1011.53 1012.11 1012.68 1013.21 1013.72 1014.32 1014.92 1015.41 1015.80 1016.19 1016.62 1017.03 1017.47 1017.73 1018.06 1018.46 1018.82 1019.28 1019.56 1019.83 1020.29 1020.43 1020.39 1020.41 1020.29 1020.09 1019.91 1019.88 1019.90 1019.92
1001.97 1002.68 1003.04 1003.89 1004.57 1005.25 1005.99 1006.67 1007.40 1008.03 1008.50 1009.20 1009.93 1010.53 1011.10 1011.67 1012.15 1012.77 1013.38 1013.96 1014.42 1014.80 1015.27 1015.68 1016.13 1016.45 1016.89 1017.21 1017.75 1018.09 1018.50 1018.96 1019.24 1019.57 1020.03 1020.23 1020.03 1019.83 1019.99 1020.16 1019.89 1019.69 1019.47
1000.33 1000.78 1001.77 1002.87 1003.60 1004.19 1004.87 1005.52 1006.27 1006.76 1007.38 1008.12 1008.71 1009.41 1010.17 1010.55 1010.93 1011.68 1012.45 1012.99 1013.40 1013.87 1014.34 1014.76 1015.32 1015.74 1016.12 1016.50 1016.89 1017.29 1017.60 1017.96 1018.34 1018.48 1018.68 1019.11 1019.21 1019.40 1019.41 1019.49 1019.75 1019.62 1019.28
998.84 999.44 1000.44 1001.33 1002.13 1002.77 1003.60 1004.32 1004.79 1005.39 1006.24 1006.84 1007.57 1008.36 1008.86 1009.42 1010.01 1010.75 1011.43 1011.88 1012.32 1012.84 1013.28 1013.74 1014.35 1014.66 1015.17 1015.55 1016.12 1016.57 1017.10 1017.38 1017.33 1017.81 1018.19 1018.41 1018.56 1018.64 1018.87 1018.99 1019.27 1019.49 1019.20
997.92 998.71 999.46 1000.12 1000.68 1001.77 1002.70 1003.11 1003.53 1004.23 1004.85 1005.44 1006.06 1006.69 1007.57 1008.10 1008.88 1009.53 1010.18 1010.78 1011.22 1011.60 1011.98 1012.42 1012.86 1013.35 1013.88 1014.55 1015.25 1015.78 1016.28 1016.66 1017.00 1017.19 1017.44 1017.61 1017.83 1018.25 1018.23 1018.60 1018.82 1019.14 1019.13
997.27 997.88 998.46 999.01 999.65 1000.46 1001.17 1001.53 1002.25 1003.25 1003.73 1003.97 1004.58 1005.53 1006.04 1006.65 1007.40 1008.20 1009.28 1009.80 1010.22 1010.56 1011.02 1011.59 1011.98 1012.55 1013.00 1013.72 1014.31 1014.75 1015.22 1015.69 1016.21 1016.77 1017.02 1017.25 1017.66 1017.89 1018.11 1018.39 1018.61 1018.90 1018.94
996.20 996.21 996.95 997.64 998.43 999.11 999.52 1000.14 1000.92 1001.84 1002.73 1003.64 1003.92 1004.18 1004.83 1005.57 1006.19 1006.92 1007.95 1008.53 1009.43 1010.31 1010.85 1011.40 1011.91 1012.34 1012.97 1013.51 1013.76 1014.29 1014.67 1015.06 1015.78 1016.37 1016.84 1017.13 1017.27 1017.72 1017.88 1017.81 1018.08 1018.23 1018.81
994.63 995.64 996.14 996.60 996.99 997.32 998.16 999.66 1000.46 1001.08 1001.59 1002.28 1002.79 1003.37 1003.68 1004.28 1004.82 1005.39 1006.73 1007.73 1008.55 1009.27 1009.87 1010.68 1011.12 1011.80 1012.55 1013.37 1013.67 1014.18 1014.44 1014.50 1015.27 1015.93 1016.56 1016.66 1016.86 1017.41 1017.59 1017.57 1017.84 1017.92 1018.44
994.76 995.54 995.88 995.85 996.24 997.18 997.85 998.65 999.10 999.99 1000.65 1000.59 1001.58 1002.26 1002.63 1002.97 1004.03 1005.30 1005.61 1006.03 1006.93 1008.07 1009.04 1009.64 1010.36 1010.77 1011.39 1012.67 1013.79 1014.03 1014.34 1014.26 1014.88 1015.58 1016.21 1016.35 1016.57 1016.86 1017.31 1017.47 1017.66 1017.71 1018.13
995.08 995.63 996.06 996.73 997.37 997.98 998.52 998.97 999.86 1000.20 1000.42 1000.96 1001.02 1001.36 1001.69 1003.10 1003.05 1004.98 1004.85 1005.10 1005.61 1006.65 1008.49 1008.62 1009.87 1009.96 1010.37 1011.83 1012.85 1013.70 1014.41 1014.80 1015.01 1015.34 1015.81 1016.23 1016.21 1016.73 1017.09 1017.32 1017.63 1017.98 1018.02
994.75 995.23 995.60 996.29 997.19 998.03 998.84 999.46 1000.04 1000.41 1000.88 1001.15 1001.49 1000.99 1001.88 1002.66 1003.96 1005.00 1006.30 1006.28 1001.95 1006.97 1007.86 1010.82 1011.24 1010.91 1010.24 1011.39 1012.75 1013.77 1014.13 1014.48 1014.91 1015.15 1015.56 1015.93 1016.21 1016.56 1017.15 1017.28 1017.66 1018.07 1017.80
995.03 995.57 996.10 996.86 998.12 999.17 999.95 1000.24 1000.45 1001.41 1000.81 1000.34 1000.57 1001.08 1001.62 1002.98 1002.96 1002.44 1002.31 1003.98 1007.32 1009.21 1009.40 1011.20 1010.68 1011.03 1011.35 1011.98 1012.97 1013.45 1013.84 1014.93 1014.86 1015.34 1015.30 1015.63 1015.82 1016.23 1017.09 1017.21 1017.73 1018.12 1017.52
995.59 996.18 997.00 997.60 998.24 998.85 999.54 1000.78 1000.65 1000.40 1000.35 1001.09 1001.23 1002.12 1002.15 1002.74 1000.81 1000.63 1002.26 1002.40 1004.87 1005.83 1007.80 1009.62 1009.78 1011.66 1011.58 1012.17 1012.83 1013.43 1014.27 1014.58 1014.65 1014.91 1014.98 1015.54 1015.81 1016.26 1016.77 1017.21 1018.18 1018.05 1017.58
996.52 996.96 997.27 997.65 998.40 998.90 999.30 999.86 1000.29 1000.59 1000.32 1000.25 1001.02 1001.34 1002.66 1003.36 1004.98 1002.59 1002.15 1003.23 1005.15 1005.50 1005.67 1007.99 1009.08 1009.59 1010.55 1011.83 1012.50 1013.28 1014.01 1014.27 1014.20 1014.27 1014.69 1014.98 1015.50 1015.94 1016.80 1017.18 1017.66 1017.73 1017.20
996.92 997.33 997.38 997.58 997.94 998.22 998.51 998.82 999.04 999.41 999.96 1000.98 1001.26 1002.82 1003.34 1001.50 1004.53 1006.85 1005.07 1004.07 1005.72 1006.54 1006.78 1007.96 1008.03 1008.56 1009.82 1011.09 1012.28 1013.08 1013.56 1013.99 1013.96 1013.86 1014.56 1014.81 1015.20 1015.80 1016.67 1017.33 1017.52 1017.14 1016.67
997.32 997.84 997.83 997.75 998.17 998.32 998.47 998.70 998.90 999.48 1000.08 1000.35 999.19 1004.17 1002.88 1004.76 1003.02 1006.33 1004.95 1004.09 1005.46 1006.81 1006.87 1007.57 1007.87 1008.70 1009.79 1011.05 1011.88 1012.66 1013.08 1012.98 1013.56 1014.03 1014.58 1014.69 1014.50 1015.41 1016.29 1017.18 1017.23 1016.58 1016.00
997.91 998.35 998.03 998.14 998.63 999.02 999.02 998.90 999.38 999.64 1000.38 998.94 1000.15 1003.86 1004.39 1004.50 1004.73 1005.03 1005.09 1005.27 1006.09 1006.57 1007.08 1007.33 1008.13 1008.96 1010.05 1011.01 1011.76 1012.27 1012.67 1013.05 1013.37 1013.92 1014.32 1014.37 1014.45 1015.42 1016.23 1016.48 1016.61 1015.85 1015.24
998.06 998.45 998.43 998.81 999.54 999.83 999.41 999.69 999.80 1000.93 999.13 999.83 1002.16 1003.49 1003.22 1003.33 1003.83 1004.35 1005.07 1005.84 1006.31 1006.55 1007.11 1007.86 1008.78 1009.53 1010.30 1010.97 1011.32 1011.84 1012.34 1012.71 1013.14 1013.72 1014.05 1014.17 1014.44 1015.30 1015.86 1016.08 1015.83 1015.30 1014.70
998.12 998.56 998.53 998.74 999.57 999.43 999.61 999.84 999.90 1000.05 1000.69 1001.30 1002.58 1003.46 1003.88 1003.84 1004.08 1004.96 1005.45 1005.70 1005.97 1006.64 1007.53 1008.07 1008.70 1009.34 1009.83 1010.30 1011.00 1011.57 1012.09 1012.42 1012.90 1013.36 1013.94 1014.11 1014.43 1015.05 1015.64 1015.49 1015.27 1014.76 1014.31
999.01 999.15 999.48 999.99 1000.51 1000.28 1000.58 1001.04 1001.27 1001.69 1002.06 1002.42 1003.30 1003.73 1003.86 1004.18 1004.52 1004.88 1005.18 1005.45 1006.15 1007.05 1007.82 1008.46 1008.81 1009.33 1009.80 1010.10 1010.51 1011.22 1011.78 1011.85 1012.23 1012.78 1013.87 1014.14 1014.31 1014.88 1015.25 1014.90 1014.70 1014.28 1013.93
999.92 999.77 999.96 1000.37 1000.49 1000.85 1001.30 1001.89 1002.27 1002.51 1003.12 1003.83 1004.25 1004.38 1004.40 1004.78 1005.02 1005.18 1005.61 1006.06 1006.55 1007.31 1008.03 1008.35 1008.75 1009.21 1009.93 1010.48 1010.86 1010.82 1011.33 1011.87 1012.47 1012.65 1013.27 1013.62 1013.99 1014.43 1014.64 1014.52 1014.03 1013.76 1013.85
1000.75 1000.75 1000.83 1000.98 1000.69 1001.16 1001.68 1001.78 1002.50 1002.70 1003.33 1003.68 1003.95 1004.53 1004.97 1005.34 1005.41 1005.24 1005.72 1006.32 1006.80 1007.14 1007.56 1008.17 1008.57 1009.28 1009.96 1010.41 1010.70 1010.78 1011.15 1012.11 1012.40 1012.69 1013.10 1013.30 1013.59 1013.87 1014.11 1013.89 1013.53 1013.38 1013.77
1001.47 1001.39 1001.48 1001.87 1001.82 1001.76 1001.98 1002.66 1003.13 1003.67 1004.09 1004.37 1004.65 1005.26 1005.57 1005.74 1005.90 1006.26 1006.30 1006.38 1006.74 1007.06 1007.66 1008.05 1008.38 1009.09 1009.82 1010.11 1010.43 1010.65 1011.33 1012.12 1012.38 1012.54 1012.55 1012.70 1013.14 1013.38 1013.75 1013.40 1013.11 1013.10 1013.55
Thickness
5832 5827 5821 5816 5811 5808 5805 5804 5800 5795 5792 5788 5786 5783 5780 5776 5772 5767 5763 5759 5754 5748 5744 5740 5735 5730 5727 5724 5721 5716 5711 5707 5702 5703 5699 5698 5697 5695 5694 5691 5687 5683 5681
5841 5833 5829 5823 5817 5811 5807 5804 5800 5798 5794 5791 5788 5785 5783 5780 5776 5772 5767 5763 5755 5749 5745 5739 5737 5731 5728 5724 5720 5716 5712 5707 5702 5696 5699 5697 5694 5693 5691 5686 5683 5684 5683
5845 5839 5832 5828 5822 5816 5812 5808 5803 5800 5798 5794 5792 5789 5786 5784 5780 5778 5773 5766 5760 5754 5748 5743 5739 5733 5728 5725 5720 5715 5709 5704 5700 5696 5694 5693 5691 5687 5686 5687 5683 5677 5674
5850 5844 5839 5835 5832 5827 5821 5815 5809 5806 5801 5800 5798 5794 5791 5787 5784 5780 5775 5770 5764 5758 5753 5747 5742 5735 5730 5726 5721 5715 5709 5703 5698 5692 5688 5684 5680 5679 5679 5676 5674 5669 5664
5850 5847 5847 5842 5837 5832 5826 5821 5815 5811 5810 5806 5801 5797 5794 5791 5789 5783 5778 5772 5767 5762 5756 5751 5745 5741 5735 5730 5723 5716 5709 5701 5697 5692 5684 5678 5677 5675 5669 5664 5664 5662 5659
5860 5859 5854 5846 5841 5837 5832 5826 5821 5818 5815 5810 5806 5801 5796 5795 5794 5786 5779 5774 5771 5765 5758 5754 5747 5741 5736 5730 5725 5718 5712 5704 5696 5693 5688 5679 5675 5669 5665 5662 5654 5650 5648
5868 5866 5860 5854 5848 5845 5839 5833 5830 5825 5818 5815 5811 5805 5801 5799 5794 5787 5780 5777 5774 5768 5762 5756 5748 5746 5739 5733 5724 5718 5710 5703 5700 5690 5683 5675 5671 5665 5661 5655 5647 5639 5638
5871 5866 5862 5858 5855 5848 5840 5837 5835 5830 5824 5819 5815 5812 5805 5803 5795 5789 5784 5779 5777 5773 5767 5761 5754 5748 5742 5734 5725 5716 5707 5699 5692 5686 5681 5675 5668 5658 5655 5647 5641 5633 5627
5866 5865 5864 5862 5858 5851 5845 5845 5841 5831 5828 5827 5823 5814 5811 5807 5800 5793 5782 5778 5776 5773 5768 5760 5755 5748 5743 5732 5724 5714 5706 5697 5689 5680 5674 5668 5660 5652 5645 5639 5632 5622 5616
5869 5874 5872 5867 5861 5854 5853 5849 5845 5838 5829 5822 5818 5818 5813 5808 5801 5793 5784 5779 5771 5764 5760 5754 5746 5741 5734 5725 5720 5710 5701 5693 5683 5674 5666 5658 5652 5643 5637 5632 5624 5616 5604
5879 5873 5870 5868 5864 5863 5857 5845 5838 5833 5829 5823 5819 5815 5813 5807 5802 5794 5780 5775 5767 5759 5753 5746 5743 5735 5725 5716 5713 5703 5694 5688 5677 5667 5657 5652 5645 5634 5628 5623 5615 5609 5596
5866 5862 5863 5865 5864 5856 5851 5843 5839 5826 5820 5823 5817 5812 5812 5809 5794 5782 5777 5775 5766 5756 5748 5740 5738 5727 5720 5710 5701 5693 5684 5681 5671 5659 5649 5643 5636 5629 5620 5614 5607 5602 5591
5850 5850 5848 5845 5843 5840 5833 5830 5823 5816 5814 5806 5806 5804 5803 5791 5790 5769 5766 5760 5754 5746 5731 5731 5727 5724 5719 5706 5695 5684 5673 5667 5658 5650 5643 5635 5630 5622 5612 5607 5600 5591 5583
5842 5840 5840 5835 5829 5823 5818 5815 5809 5804 5796 5790 5790 5796 5784 5778 5763 5757 5738 5702 5703 5703 5717 5698 5698 5705 5711 5697 5686 5673 5667 5661 5651 5644 5636 5630 5623 5615 5606 5600 5593 5580 5575
5827 5824 5822 5816 5804 5796 5790 5789 5790 5778 5785 5791 5785 5778 5770 5758 5760 5759 5752 5724 5698 5684 5693 5690 5699 5696 5692 5680 5673 5666 5660 5645 5642 5633 5631 5624 5619 5611 5600 5594 5582 5571 5572
5806 5803 5798 5794 5790 5786 5781 5773 5771 5771 5771 5762 5760 5753 5746 5736 5747 5750 5743 5742 5722 5719 5709 5693 5696 5678 5676 5671 5664 5657 5644 5637 5635 5629 5626 5618 5613 5605 5595 5587 5571 5566 5565
5785 5782 5782 5781 5776 5771 5767 5764 5760 5758 5754 5754 5742 5740 5728 5716 5663 5698 5714 5716 5702 5705 5718 5698 5687 5680 5673 5662 5657 5647 5636 5631 5630 5627 5620 5614 5607 5599 5587 5579 5567 5564 5563
5770 5766 5769 5769 5765 5760 5759 5756 5752 5747 5739 5732 5722 5709 5697 5707 5693 5655 5666 5696 5693 5685 5693 5683 5682 5677 5667 5657 5644 5635 5630 5626 5625 5623 5612 5606 5602 5594 5581 5570 5563 5563 5563
5754 5751 5753 5753 5749 5746 5744 5741 5734 5723 5710 5707 5724 5654 5669 5669 5700 5669 5683 5696 5682 5677 5680 5675 5672 5665 5654 5643 5636 5631 5626 5628 5620 5613 5603 5600 5597 5588 5576 5565 5561 5562 5563
5736 5733 5738 5737 5732 5727 5725 5726 5717 5706 5694 5705 5707 5659 5654 5663 5669 5670 5675 5677 5672 5669 5666 5665 5657 5649 5640 5634 5628 5626 5623 5617 5611 5604 5598 5593 5590 5580 5570 5565 5562 5568 5569
5724 5723 5725 5720 5710 5706 5712 5709 5705 5683 5703 5702 5676 5666 5677 5677 5677 5675 5669 5663 5660 5658 5654 5649 5641 5636 5629 5625 5624 5622 5616 5610 5604 5598 5592 5587 5582 5573 5567 5564 5564 5567 5568
5713 5710 5712 5710 5701 5702 5701 5697 5694 5693 5688 5683 5673 5666 5662 5668 5668 5662 5658 5657 5655 5650 5643 5639 5634 5629 5626 5623 5619 5614 5607 5602 5597 5590 5584 5580 5574 5570 5563 5564 5564 5567 5566
5693 5692 5690 5686 5680 5682 5681 5677 5675 5671 5670 5669 5661 5656 5658 5657 5657 5655 5652 5649 5644 5636 5631 5625 5624 5621 5616 5614 5614 5606 5600 5599 5591 5585 5576 5571 5570 5565 5562 5564 5564 5565 5565
5671 5674 5673 5668 5669 5668 5663 5659 5658 5655 5652 5647 5645 5646 5648 5645 5643 5638 5635 5633 5631 5626 5619 5618 5615 5612 5607 5602 5600 5600 5594 5588 5579 5577 5572 5569 5567 5563 5561 5561 5563 5562 5559
5651 5652 5654 5655 5659 5656 5652 5650 5646 5646 5642 5637 5631 5627 5623 5621 5622 5627 5623 5621 5618 5618 5616 5610 5607 5601 5596 5592 5590 5591 5585 5575 5571 5568 5564 5563 5564 5562 5558 5560 5560 5559 5553
5634 5637 5637 5636 5637 5638 5637 5633 5629 5625 5622 5620 5620 5615 5609 5609 5608 5606 5608 5609 5609 5608 5603 5600 5597 5590 5584 5584 5582 5579 5572 5565 5562 5561 5561 5562 5560 5559 5554 5556 5557 5555 5549